St. Eustatius, Netherlands

9:42 PM AST on August 17, 2017 (GMT -0400)
F.D. Roosevelt

Weather History for TNCE - October, 2011

Change the Weather History Date:

Saturday, October 8, 2011

  Actual Average Record
Temperature  
Mean Temperature 82 °F -  
Max Temperature 87 °F 84 °F 91 °F (2002)
Min Temperature 78 °F 78 °F 73 °F (2001)
Cooling Degree Days 18    
Growing Degree Days 32 (Base 50)    
Moisture  
Dew Point 75 °F    
Average Humidity 75    
Maximum Humidity 89    
Minimum Humidity 60    
Precipitation  
Precipitation 0.00 in - - ()
Sea Level Pressure  
Sea Level Pressure 29.95 in    
Wind  
Wind Speed 8 mph ()    
Max Wind Speed 13 mph    
Max Gust Speed -    
Visibility 8.3 miles    
Events      
Averages and records for this station are not official NWS values.
T = Trace of Precipitation, MM = Missing Value Source: Averaged Metar Reports

Daily Weather History Graph

Daily Weather History Graph

Search for Another Location

Airport or City:

Trip Planner

Search our weather history database for the weather conditions in past years. The results will help you decide how hot, cold, wet, or windy it might be!

Date:

Astronomy

Oct. 08, 2011 Rise Set
Actual Time 6:03 AM AST 5:55 PM AST
Civil Twilight 5:41 AM AST 6:17 PM AST
Nautical Twilight 5:16 AM AST 6:42 PM AST
Astronomical Twilight 4:51 AM AST 7:07 PM AST
Moon 3:44 PM AST (10/8) 3:10 AM AST (10/8)
Length of Visible Light 12h 35m
Length of Day
11h 51m
Waxing Gibbous, 90% of the Moon is Illuminated
Oct 8
Waxing Gibbous
Oct 11
Full
Oct 19
Last Quarter
Oct 26
New
Nov 2
First Quarter

Hourly Weather History & Observations

Time (AST) Temp. Heat Index Dew Point Humidity Pressure Visibility Wind Dir Wind Speed Gust Speed Precip Events Conditions
12:00 AM 80.6 °F 86.2 °F 75.2 °F 84% 29.95 in - East 5.8 mph - N/A   Unknown
1:00 AM 78.8 °F - 75.2 °F 89% 29.95 in - ENE 5.8 mph - N/A   Unknown
2:00 AM 80.6 °F 86.2 °F 75.2 °F 84% 29.92 in - ENE 9.2 mph - N/A   Unknown
3:00 AM 80.6 °F 86.2 °F 75.2 °F 84% 29.92 in - ENE 5.8 mph - N/A   Unknown
4:00 AM 80.6 °F 85.4 °F 73.4 °F 79% 29.92 in - ENE 6.9 mph - N/A   Unknown
5:00 AM 80.6 °F 85.4 °F 73.4 °F 79% 29.92 in - ENE 6.9 mph - N/A   Unknown
6:00 AM 80.6 °F 85.4 °F 73.4 °F 79% 29.92 in - ENE 10.4 mph - N/A   Unknown
7:00 AM 82.4 °F 88.2 °F 73.4 °F 74% 29.95 in - ENE 10.4 mph - N/A   Unknown
9:00 AM 86.0 °F 95.1 °F 75.2 °F 70% 29.98 in 6.2 mi East 10.4 mph - N/A   Partly Cloudy
10:00 AM 86.0 °F 95.1 °F 75.2 °F 70% 30.01 in 6.2 mi East 11.5 mph - N/A   Partly Cloudy
11:00 AM 86 °F - 76 °F 65% 29.99 in 22 mi East 12.7 mph - -   Scattered Clouds
11:00 AM 86.0 °F 96.9 °F 77.0 °F 74% 29.98 in 6.2 mi East 12.7 mph - N/A   Partly Cloudy
12:00 PM 87.8 °F 97.6 °F 75.2 °F 66% 29.98 in 6.2 mi East 11.5 mph - N/A   Partly Cloudy
1:00 PM 86.0 °F 95.1 °F 75.2 °F 70% 29.95 in 6.2 mi East 11.5 mph - N/A   Partly Cloudy
2:00 PM 87 °F - 75 °F 60% 29.94 in 19 mi ESE 11.5 mph - -   Scattered Clouds
2:00 PM 87.8 °F 97.6 °F 75.2 °F 66% 29.95 in 6.2 mi East 10.4 mph - N/A   Partly Cloudy
4:00 PM 86.0 °F 95.1 °F 75.2 °F 70% 29.92 in 6.2 mi ENE 11.5 mph - N/A   Partly Cloudy
5:00 PM 85 °F - 74 °F 64% 29.92 in 19 mi East 11.5 mph - -   Partly Cloudy
5:00 PM 84.2 °F 92.3 °F 75.2 °F 74% 29.92 in 6.2 mi East 9.2 mph - N/A   Scattered Clouds
7:00 PM 80.6 °F 85.4 °F 73.4 °F 79% 29.95 in 6.2 mi ENE 8.1 mph - N/A   Partly Cloudy
8:00 PM 80.6 °F 85.4 °F 73.4 °F 79% 29.95 in 6.2 mi ENE 10.4 mph - N/A   Partly Cloudy
9:00 PM 80.6 °F 85.4 °F 73.4 °F 79% 29.95 in - ENE 8.1 mph - N/A   Unknown
10:00 PM 80.6 °F 85.4 °F 73.4 °F 79% 29.95 in - ENE 10.4 mph - N/A   Unknown
11:00 PM 80.6 °F 85.4 °F 73.4 °F 79% 29.95 in - ENE 11.5 mph - N/A   Unknown